Challis, ID

1:20 PM MDT on July 25, 2016 (GMT -0600)
Challis

Weather History for KLLJ - October, 2013

Change the Weather History Date:

Wednesday, October 2, 2013

  Actual Average Record
Temperature  
Mean Temperature 40 °F 50 °F  
Max Temperature 51 °F 66 °F 83 °F (1963)
Min Temperature 28 °F 34 °F 25 °F (1950)
Degree Days  
Heating Degree Days 25 15  
Month to date heating degree days 46 30  
Since 1 July heating degree days 270 379  
Cooling Degree Days 0 0  
Month to date cooling degree days 0 0  
Year to date cooling degree days 420 248  
Moisture  
Dew Point 27 °F    
Average Humidity 62    
Maximum Humidity 85    
Minimum Humidity 38    
Precipitation  
Precipitation T in 0.02 in 0.52 in (2015)
Month to date precipitation T 0.04  
Year to date precipitation 4.20 8.17  
Sea Level Pressure  
Sea Level Pressure 29.98 in    
Wind  
Wind Speed 2 mph (North)    
Max Wind Speed 9 mph    
Max Gust Speed 12 mph    
Visibility 10 miles    
Events      
T = Trace of Precipitation, MM = Missing Value Source: NWS Daily Summary

Daily Weather History Graph

Daily Weather History Graph

Search for Another Location

Airport or City:

Trip Planner

Search our weather history database for the weather conditions in past years. The results will help you decide how hot, cold, wet, or windy it might be!

Date:

Astronomy

Oct. 02, 2013 Rise Set
Actual Time 7:36 AM MDT 7:15 PM MDT
Civil Twilight 7:07 AM MDT 7:44 PM MDT
Nautical Twilight 6:33 AM MDT 8:17 PM MDT
Astronomical Twilight 5:59 AM MDT 8:51 PM MDT
Moon 5:09 AM MDT (10/2) 5:56 PM MDT (10/2)
Length of Visible Light 12h 36m
Length of Day
11h 38m
Waning Crescent, 6% of the Moon is Illuminated
Oct 2
Waning Crescent
Oct 4
New
Oct 11
First Quarter
Oct 18
Full
Oct 26
Last Quarter

Hourly Weather History & Observations

Time (MDT) Temp. Windchill Dew Point Humidity Pressure Visibility Wind Dir Wind Speed Gust Speed Precip Events Conditions
12:55 AM 41.0 °F 39.0 °F 23.0 °F 49% 30.05 in 10.0 mi SSE 3.5 mph - N/A   Clear
1:55 AM 35.1 °F - 24.1 °F 64% 30.08 in 10.0 mi Calm Calm - N/A   Clear
2:55 AM 33.1 °F - 25.0 °F 72% 30.08 in 10.0 mi Calm Calm - N/A   Clear
3:55 AM 33.1 °F - 25.0 °F 72% 30.04 in 10.0 mi Calm Calm - N/A   Clear
4:55 AM 30.0 °F 26.5 °F 24.1 °F 79% 30.06 in 10.0 mi NW 3.5 mph - N/A   Clear
5:55 AM 30.9 °F 27.5 °F 24.1 °F 76% 30.08 in 10.0 mi WSW 3.5 mph - N/A   Clear
6:55 AM 30.0 °F 24.1 °F 24.1 °F 79% 30.10 in 10.0 mi SSE 5.8 mph - N/A   Clear
7:55 AM 28.9 °F - 24.1 °F 82% 30.11 in 10.0 mi Calm Calm - N/A   Clear
8:55 AM 32.0 °F - 26.1 °F 79% 30.11 in 10.0 mi Calm Calm - N/A   Clear
9:55 AM 36.0 °F - 26.1 °F 67% 30.09 in 10.0 mi Calm Calm - N/A   Clear
10:55 AM 37.9 °F - 27.0 °F 65% 30.08 in 10.0 mi Calm Calm - N/A   Clear
11:55 AM 41.0 °F 39.0 °F 28.0 °F 60% 30.05 in 10.0 mi NNE 3.5 mph - N/A   Clear
12:55 PM 42.1 °F - 27.0 °F 55% 30.02 in 10.0 mi Calm Calm - N/A   Clear
1:55 PM 44.1 °F - 27.0 °F 51% 29.99 in 10.0 mi Calm Calm - N/A   Clear
2:55 PM 46.9 °F - 27.0 °F 46% 29.95 in 10.0 mi NNE 3.5 mph - N/A   Clear
3:55 PM 46.9 °F - 25.0 °F 42% 29.91 in 10.0 mi North 3.5 mph - N/A   Scattered Clouds
4:55 PM 48.9 °F - 27.0 °F 43% 29.87 in 10.0 mi North 3.5 mph - N/A   Scattered Clouds
5:55 PM 51.1 °F - 27.0 °F 39% 29.85 in 10.0 mi NNW 3.5 mph - N/A   Mostly Cloudy
6:55 PM 48.0 °F - 27.0 °F 44% 29.85 in 10.0 mi Calm Calm - N/A   Overcast
7:55 PM 46.9 °F - 28.9 °F 50% 29.85 in 10.0 mi Calm Calm - N/A   Overcast
8:55 PM 46.9 °F - 28.9 °F 50% 29.83 in 10.0 mi East 5.8 mph - N/A   Overcast
9:55 PM 46.0 °F - 28.0 °F 50% 29.82 in 10.0 mi Calm Calm - N/A   Overcast
10:55 PM 43.0 °F - 32.0 °F 65% 29.80 in 10.0 mi Calm Calm - 0.00 in   Overcast
11:55 PM 43.0 °F 40.3 °F 30.9 °F 62% 29.80 in 10.0 mi NW 4.6 mph - 0.00 in   Overcast